Home > Weather > Rotherham > Past weeks

Flag for United Kingdom Past Weather in Rotherham, England, United Kingdom — Yesterday and Last 2 Weeks

Now
63 °F

Smoke.


Feels Like: 63 °F
Forecast: 52 / 67 °F
Wind: 3 mph from West

Location: Nottingham Weather Centre

Current Time: Aug 28, 2016 at 11:39:16 AM

Latest Report: Aug 28, 2016 at 11:00 AM


Visibility: 6 mi

Pressure: 29.86 "Hg

Humidity: 87%

Dew Point: 59 °F

Location of RotherhamLocation

Past Weather in Rotherham — Graph

°F

Rotherham Temperature Yesterday

Maximum temperature yesterday: 69 °F (at 3:00 PM)
Minimum temperature yesterday: 51 °F (at 5:00 AM)
Average temperature yesterday: 58 °F

High & Low Weather Summary for the Past Weeks

 TemperatureHumidityPressure
High82 °F (Aug 23, 5:00 PM)100% (Aug 18, 6:00 AM)30.34 "Hg (Aug 18, 6:00 AM)
Low50 °F (Aug 16, 6:00 AM)44% (Aug 23, 4:00 PM)29.53 "Hg (Aug 20, 4:00 PM)
Average63 °F79%30.01 "Hg
* Reported Aug 13 10:00 AM — Aug 28 10:00 AM, Rotherham, Weather by CustomWeather, © 2016

Note: Actual official high and low records may vary slightly from our data, if they occured in-between our weather recording intervals... More about our weather records

Advertising

Rotherham Weather History for the Previous 24 Hours

Scroll right to see more
 ConditionsComfort  
Time TempWeatherWind HumidityBarometerVisibility
10:00 AM
Sun, Aug 28
62 °FSmoke.6 mph90%29.85 "Hg4 mi
9:00 AM60 °FFog.6 mph96%29.84 "Hg3 mi
8:00 AM58 °FFog.5 mph97%29.83 "Hg3 mi
7:00 AM58 °FFog.3 mph97%29.83 "Hg2 mi
6:00 AM58 °FFog.1 mph96%29.83 "Hg9 mi
5:00 AM58 °FFog.No wind95%29.83 "Hg6 mi
4:00 AM58 °FFog.5 mph95%29.84 "Hg6 mi
3:00 AM58 °FCool.5 mph95%29.85 "Hg9 mi
2:00 AM57 °FFog.5 mph96%29.86 "Hg4 mi
1:00 AM57 °FFog.6 mph95%29.88 "Hg11 mi
12:00 AM58 °FCool.5 mph95%29.91 "Hg14 mi
11:00 PM
Sat, Aug 27
57 °FCool.8 mph95%29.92 "Hg12 mi
10:00 PM57 °FCool.8 mph93%29.93 "Hg25 mi
9:00 PM57 °FCool.10 mph96%29.94 "Hg14 mi
8:00 PM58 °FRain showers. Cloudy.12 mph95%29.95 "Hg1 mi
7:00 PM60 °FCool.9 mph96%29.96 "Hg7 mi
6:00 PM60 °FRain. Cloudy.10 mph95%29.96 "Hg2 mi
5:00 PM63 °FMild.7 mph89%29.98 "Hg6 mi
4:00 PM67 °FMild.7 mph75%30.00 "Hg12 mi
3:00 PM69 °FMild.10 mph70%30.00 "Hg9 mi
2:00 PM69 °FMild.13 mph64%30.03 "Hg8 mi
1:00 PM67 °FMild.10 mph72%30.06 "Hg11 mi
12:00 PM63 °FMild.7 mph84%30.09 "Hg8 mi
11:00 AM59 °FLots of rain. Cloudy.7 mph90%30.11 "Hg3 mi
Weather by CustomWeather, © 2016

See weather overviewHow to use our weather pages